[[{"header":{"parameterUnit":"m.s-1","parameterCategory":1,"la1":30.2992,"la2":30.254,"lo1":-89.0895,"lo2":-89.0443,"dy":0.0025,"dx":0.0025,"nx":19,"ny":19,"refTime":"2026-05-07T21:00:00:Z","depth":0,"parameterNumber":2,"parameterNumberName":"U-component_of_WINDS"},"data":[0,0,0,-4.9755,-4.9759,-4.989,-4.989,-5.0087,-5.0089,0,0,0,0,0,0,0,0,0,0,0,-4.9733,-4.9735,-4.9755,-4.9759,-4.989,-4.989,-5.0086,-5.0089,0,0,0,0,0,0,0,0,0,0,0,-4.9732,-4.9734,-4.9737,-4.9759,-4.9889,-4.989,-5.0086,-4.9977,0,0,0,0,0,0,0,0,0,0,-4.9845,-4.984,-4.9734,-4.9737,-4.976,-4.9889,-4.989,-4.9971,-4.9984,-5.004,0,-5.0092,0,-5.0094,-5.0104,-5.0105,0,0,0,-4.9747,-4.983,-4.985,-4.9737,-4.9762,-4.9889,-4.9827,-4.9978,-4.9992,-5.0057,-5.0095,-5.0101,-5.0097,-5.0105,-5.0106,-5.0465,-5.0467,0,0,-4.974,-4.9766,-4.984,-4.986,-4.984,-4.9823,-4.9831,-4.9986,-5.003,-5.0095,-5.0106,-5.01,-5.0107,-5.0108,-5.0462,-5.0465,0,0,0,-4.9727,-4.9761,-4.9777,-4.9853,-4.9874,-4.9827,-4.9837,-5.0023,-5.0026,-5.0107,-5.0103,-5.0108,-5.0111,-5.046,-5.0463,-5.0599,0,0,0,-4.9722,-4.9754,-4.9775,-4.9792,-4.9872,-4.995,-4.9871,-5.0016,-5.0032,-5.0102,-5.0108,-5.0113,-5.0457,-5.0462,-5.059,-5.0659,0,0,0,-4.9719,-4.9753,-4.9777,-4.9793,-4.985,-4.9947,-4.9958,-5.0019,-5.003,-5.0105,-5.0114,-5.0456,-5.0461,-5.0582,-5.0646,-5.0762,0,0,0,-4.9723,-4.9896,-4.978,-4.9971,-4.9849,-5.0029,-4.9957,-5.009,-5.017,-5.0109,-5.0458,-5.0463,-5.0579,-5.0637,-5.0753,-5.0865,-5.0913,0,0,-4.9956,-4.9925,-5.0035,-4.9935,-5.0143,-5.0007,-5.0235,-5.0284,-5.0268,-5.04,-5.0409,-5.0593,-5.0645,-5.076,-5.1174,-5.1212,0,0,0,-5.0118,-5.0198,-5.0247,-5.0324,-5.0365,-5.0407,-5.0418,-5.0436,-5.0547,-5.0341,-5.0664,-5.0695,-5.0761,-5.0813,-5.0846,-5.0902,-5.0488,-5.0487,-5.0487,-5.0485,-5.0454,-5.0635,-5.0621,-5.0697,-5.0707,-5.0766,-5.0793,-5.074,-5.0818,-5.0857,-5.1112,-5.1174,-5.1198,-5.1257,-5.0912,-5.0913,-5.0913,-5.0914,-5.0824,-5.0933,-5.0858,-5.1007,-5.0975,-5.11,-5.1117,-5.1076,-5.1189,-5.1079,-5.1136,-5.102,-5.1242,-5.1291,-5.0924,-5.0922,-5.0921,-5.092,-5.0919,-5.1062,-5.1109,-5.1127,-5.1236,-5.1323,-5.1302,-5.1415,-5.1381,-5.135,-5.1406,-5.1445,-5.1443,-5.1437,-5.1427,-5.1428,-5.1429,-5.1429,-5.143,-5.143,-5.1302,-5.1318,-5.1416,-5.1475,-5.152,-5.1575,-5.1588,-5.1632,-5.1673,-5.1639,-5.1639,-5.1581,-5.1268,-5.1191,-5.1444,-5.1442,-5.144,-5.1439,-5.1438,-5.1659,-5.1573,-5.1724,-5.177,-5.1836,-5.1926,-5.188,-5.1974,-5.2005,-5.2062,-5.1991,-5.1765,-5.1731,-5.1705,-5.1641,-5.1996,-5.1996,-5.1996,-5.1996,-5.1861,-5.184,-5.1987,-5.2062,-5.2132,-5.2106,-5.2281,-5.2293,-5.2292,-5.231,-5.2253,-5.2165,-5.214,-5.2122,-5.2086,-5.2026,-5.2471,-5.2471,-5.2471,-5.2079,-5.2064,-5.2218,-5.2214,-5.2263,-5.2307,-5.247,-5.2561,-5.2542,-5.249,-5.2324,-5.2304,-5.2161,-5.2116,-5.2061,-5.2007,-5.1896,0,0]},{"header":{"parameterUnit":"m.s-1","parameterCategory":1,"la1":30.2992,"la2":30.254,"lo1":-89.0895,"lo2":-89.0443,"dy":0.0025,"dx":0.0025,"nx":19,"ny":19,"refTime":"2026-05-07T21:00:00:Z","depth":0,"parameterNumber":3,"parameterNumberName":"V-component_of_WINDS"},"data":[0,0,0,0.5096,0.5094,0.5,0.5,0.4888,0.4887,0,0,0,0,0,0,0,0,0,0,0,0.5129,0.5129,0.5096,0.5094,0.5,0.5,0.4888,0.4887,0,0,0,0,0,0,0,0,0,0,0,0.5129,0.5129,0.5128,0.5093,0.5,0.5,0.4888,0.4956,0,0,0,0,0,0,0,0,0,0,0.5045,0.5082,0.5129,0.5128,0.5093,0.5001,0.5,0.4959,0.4952,0.4934,0,0.4921,0,0.4903,0.488,0.488,0,0,0,0.5089,0.5088,0.5058,0.5128,0.5092,0.5001,0.5041,0.4955,0.4946,0.4924,0.4919,0.4915,0.4901,0.488,0.4879,0.48,0.48,0,0,0.5094,0.5115,0.5064,0.5053,0.5069,0.5044,0.5038,0.495,0.4945,0.4919,0.4912,0.4899,0.4879,0.4878,0.48,0.48,0,0,0,0.5112,0.5119,0.509,0.5058,0.5041,0.5041,0.5035,0.4949,0.4938,0.4911,0.4898,0.4878,0.4877,0.48,0.48,0.4815,0,0,0,0.5115,0.5129,0.5093,0.5105,0.5042,0.4994,0.5036,0.4944,0.4933,0.4898,0.4878,0.4876,0.48,0.48,0.4815,0.4818,0,0,0,0.5133,0.5131,0.512,0.5106,0.5067,0.4995,0.4979,0.4941,0.4926,0.488,0.4876,0.48,0.48,0.4815,0.4817,0.4804,0,0,0,0.5158,0.5132,0.5121,0.5087,0.5068,0.5006,0.4979,0.4931,0.4893,0.4878,0.48,0.48,0.4815,0.4817,0.4804,0.4796,0.4795,0,0,0.5137,0.513,0.5109,0.5096,0.5041,0.5018,0.4965,0.4909,0.4884,0.4829,0.4827,0.4815,0.4817,0.4804,0.4783,0.4782,0,0,0,0.5109,0.5094,0.5075,0.5042,0.5002,0.4967,0.4918,0.4898,0.4851,0.4861,0.4806,0.4806,0.4798,0.4793,0.4792,0.4784,0.4799,0.4799,0.4799,0.5108,0.5081,0.5044,0.5007,0.4975,0.4927,0.4898,0.4863,0.4841,0.4829,0.4812,0.4803,0.4799,0.4798,0.4789,0.4806,0.4807,0.4807,0.4807,0.5075,0.505,0.5027,0.4983,0.4954,0.4916,0.487,0.4857,0.4817,0.4813,0.4804,0.4801,0.4798,0.4789,0.4807,0.4807,0.4807,0.4807,0.4807,0.5071,0.5054,0.5032,0.4984,0.495,0.4912,0.4876,0.4851,0.4826,0.4817,0.4797,0.4797,0.4793,0.481,0.481,0.481,0.481,0.481,0.4809,0.5075,0.505,0.5024,0.4982,0.4959,0.4925,0.4879,0.4854,0.4821,0.4805,0.4805,0.4786,0.4804,0.4809,0.4809,0.4809,0.4809,0.4809,0.4809,0.505,0.5053,0.5012,0.499,0.4939,0.4908,0.4877,0.4831,0.4808,0.4791,0.4775,0.4793,0.4783,0.4783,0.4787,0.4781,0.4781,0.4781,0.4781,0.5046,0.504,0.4995,0.4961,0.4925,0.4894,0.485,0.4815,0.4778,0.4762,0.4759,0.4762,0.4764,0.4753,0.4754,0.4757,0.4744,0.4744,0.4744,0.503,0.502,0.4987,0.4954,0.4914,0.4879,0.4837,0.4798,0.4757,0.4742,0.4748,0.475,0.4755,0.4758,0.4741,0.4743,0.4749,0,0]}]]